"Time","Temp","Dewpoint","Humidity","Pressure","Direction","Speed","Gust","Precip","PrecipRate"
"00:04:57","57.6","53","84.5","30.05","275","0","0","0.00","0.00"
"00:09:56","57.4","52.9","85","30.05","275","0","0","0.00","0.00"
"00:14:56","57.2","53","85.8","30.05","275","0","0","0.00","0.00"
"00:19:57","57","52.9","86","30.05","275","0.6","2.3","0.00","0.00"
"00:24:59","56.9","52.8","86","30.05","275","0.3","2.3","0.00","0.00"
"00:29:56","56.8","52.7","86","30.05","275","0","0","0.00","0.00"
"00:34:58","56.7","52.6","86","30.05","275","0","0","0.00","0.00"
"00:39:56","56.6","52.5","86","30.05","275","0","0","0.00","0.00"
"00:44:58","56.3","52.3","86.2","30.06","275","0","0","0.00","0.00"
"00:49:56","56.2","52.4","87","30.06","275","0","0","0.00","0.00"
"00:54:57","56","52.2","87","30.06","275","0","0","0.00","0.00"
"00:59:59","55.8","52","87.2","30.06","275","0","0","0.00","0.00"
"01:04:56","55.6","52.1","87.9","30.06","275","0.3","2.3","0.00","0.00"
"01:09:58","55.6","52.1","88","30.06","275","0.4","1.2","0.00","0.00"
"01:14:56","55.5","52","88","30.06","275","0.1","1.2","0.00","0.00"
"01:19:58","55.4","52","88.5","30.06","275","0","1.2","0.00","0.00"
"01:24:24","55.3","52.1","89","30.06","275","0","0","0.00","0.00"
"01:29:57","55.1","51.9","89","30.06","275","0","0","0.00","0.00"
"01:34:59","55","51.8","89","30.06","275","0","0","0.00","0.00"
"01:39:57","54.8","51.6","89.2","30.06","275","0","0","0.00","0.00"
"01:44:59","54.5","51.6","90","30.06","275","0","0","0.00","0.00"
"01:49:56","54.4","51.5","90","30.05","275","0","0","0.00","0.00"
"01:54:58","54.2","51.5","90.7","30.05","275","0","0","0.00","0.00"
"01:59:56","54.2","51.6","91","30.05","275","0","0","0.00","0.00"
"02:04:57","54.2","51.3","90.1","30.05","275","0","0","0.00","0.00"
"02:09:56","54.2","51.3","90","30.05","275","0","0","0.00","0.00"
"02:14:58","54.1","51.3","90.2","30.05","275","0","0","0.00","0.00"
"02:19:56","54","51.4","91","30.05","275","0","0","0.00","0.00"
"02:24:57","53.9","51.1","90.3","30.05","275","0","0","0.00","0.00"
"02:29:58","53.7","51.1","90.7","30.05","275","0","0","0.00","0.00"
"02:34:56","53.6","50.7","90","30.05","275","0","0","0.00","0.00"
"02:39:59","53.5","50.6","90","30.05","275","0","0","0.00","0.00"
"02:44:57","53.4","50.5","90","30.05","275","0","0","0.00","0.00"
"02:49:58","53.3","50.4","90","30.05","275","0","0","0.00","0.00"
"02:54:59","53.2","50.1","89.3","30.05","275","0","0","0.00","0.00"
"02:59:57","53.2","49.9","88.7","30.05","275","0","0","0.00","0.00"
"03:04:59","53.1","49.8","88.6","30.05","275","0","0","0.00","0.00"
"03:09:58","53.1","49.6","88","30.05","275","0","0","0.00","0.00"
"03:14:57","53.1","49.6","87.9","30.05","275","0","0","0.00","0.00"
"03:19:59","53.1","49.2","86.8","30.05","276","0.1","2.3","0.00","0.00"
"03:22:24","53.1","49","86","30.05","276","0","0","0.00","0.00"
"03:29:58","53.2","49.2","86.2","30.05","276","0","0","0.00","0.00"
"03:34:59","53.2","49.1","86","30.05","276","0","1.2","0.00","0.00"
"03:39:58","53.2","48.9","85.3","30.05","276","0.1","1.2","0.00","0.00"
"03:44:59","53.3","48.9","85","30.05","284","0.3","2.3","0.00","0.00"
"03:49:57","53.4","48.8","84.4","30.05","285","0.2","2.3","0.00","0.00"
"03:54:58","53.7","49","84","30.05","285","0.3","3.5","0.00","0.00"
"03:59:56","53.7","49.2","84.5","30.05","285","0.1","1.2","0.00","0.00"
"04:04:17","53.7","49.3","85","30.05","285","0","0","0.00","0.00"
"04:09:59","53.3","48.9","85","30.05","285","0","2","0.00","0.00"
"04:14:58","53.1","48.7","85","30.05","335","1","5","0.00","0.00"
"04:19:59","53.1","48.7","85","30.05","336","0.1","2.3","0.00","0.00"
"04:24:57","53.1","48.7","85","30.05","336","0","0","0.00","0.00"
"04:29:58","53.2","48.8","85","30.06","336","0","0","0.00","0.00"
"04:34:56","53.1","48.6","84.5","30.06","336","0","0","0.00","0.00"
"04:39:58","53.2","48.5","84","30.06","336","0","0","0.00","0.00"
"04:44:59","53.3","48.6","84","30.06","336","0","0","0.00","0.00"
"04:49:57","53.3","48.6","84","30.06","336","0","0","0.00","0.00"
"04:54:59","53.3","48.6","84","30.06","336","0","0","0.00","0.00"
"04:59:57","53.2","48.5","84","30.06","336","0","0","0.00","0.00"
"05:04:58","53.2","48.5","83.8","30.06","336","0","0","0.00","0.00"
"05:09:56","53.2","48.5","83.8","30.06","336","0","0","0.00","0.00"
"05:14:59","53.2","48.4","83.5","30.06","336","0","0","0.00","0.00"
"05:19:57","53.1","48.4","84","30.06","336","0","0","0.00","0.00"
"05:24:58","53","48.3","83.8","30.06","336","0.2","2.3","0.00","0.00"
"05:29:56","53","48.3","84","30.07","336","0.1","1.2","0.00","0.00"
"05:34:57","52.8","48.1","84","30.07","336","0","0","0.00","0.00"
"05:39:56","52.8","48.1","84","30.07","336","0.3","2.3","0.00","0.00"
"05:44:57","52.6","47.9","84","30.07","336","0.4","2.3","0.00","0.00"
"05:49:59","52.7","48","84","30.07","336","0.1","1.2","0.00","0.00"
"05:54:53","52.8","47.8","83","30.07","336","0","0","0.00","0.00"
"05:59:58","52.8","48","83.6","30.07","336","0","0","0.00","0.00"
"06:04:56","52.8","47.9","83.2","30.07","336","0.1","2.3","0.00","0.00"
"06:09:59","52.7","47.7","83.1","30.07","336","0","1.2","0.00","0.00"
"06:14:58","52.5","47.8","84","30.07","336","0","0","0.00","0.00"
"06:19:56","52.3","47.6","84","30.07","336","0","1.2","0.00","0.00"
"06:24:57","52.2","47.7","84.8","30.07","336","0","0","0.00","0.00"
"06:29:59","52","47.6","85","30.08","336","0","0","0.00","0.00"
"06:34:57","51.8","47.6","85.4","30.08","336","0","0","0.00","0.00"
"06:39:59","51.8","47.7","86","30.08","336","0","0","0.00","0.00"
"06:44:57","51.7","47.6","86","30.08","321","0","0","0.00","0.00"
"06:49:58","51.7","47.8","86.6","30.08","287","0","1.2","0.00","0.00"
"06:54:55","51.6","47.9","87","30.08","287","0.1","1.2","0.00","0.00"
"06:59:57","51.8","48.1","87","30.09","287","0.2","2.3","0.00","0.00"
"07:04:58","52.2","48.4","87","30.09","289","0.2","3.5","0.00","0.00"
"07:09:56","52.6","48.8","87","30.09","290","0.2","2.3","0.00","0.00"
"07:14:58","53.2","49.4","87","30.10","290","0","1.2","0.00","0.00"
"07:19:59","53.8","50","87","30.10","290","0","1.2","0.00","0.00"
"07:24:56","54.3","50.4","86.8","30.10","293","0","0","0.00","0.00"
"07:29:57","54.8","50.7","86","30.10","323","0.8","3.5","0.00","0.00"
"07:34:58","55.3","51.2","86.1","30.10","329","0.5","3.5","0.00","0.00"
"07:39:56","55.7","51.9","87","30.10","331","1.5","3.5","0.00","0.00"
"07:44:06","56.1","52.3","87","30.10","330","1.1","3.5","0.00","0.00"
"07:49:59","56.4","52.6","87","30.11","326","1.6","4","0.00","0.00"
"07:54:56","56.7","52.9","87","30.11","329","0.3","3.5","0.00","0.00"
"07:59:59","57","53.2","87","30.11","329","0.2","2.3","0.00","0.00"
"08:04:59","57.2","53.1","86.3","30.11","330","1.6","4","0.00","0.00"
"08:09:57","57.3","53","85.7","30.11","339","0.9","3.5","0.00","0.00"
"08:14:59","57.4","53.2","86","30.12","342","0.4","4","0.00","0.00"
"08:19:57","57.5","53.3","86","30.12","344","0.6","3.5","0.00","0.00"
"08:24:58","57.7","53.5","86","30.12","344","0.2","2.3","0.00","0.00"
"08:29:59","57.8","53.6","86","30.12","344","0.2","1.2","0.00","0.00"
"08:34:56","58","53.8","86","30.11","344","0.4","2.3","0.00","0.00"
"08:39:58","58.1","53.9","86","30.11","343","0.8","4","0.00","0.00"
"08:44:59","58.4","54.1","85.7","30.12","342","1.5","4","0.00","0.00"
"08:49:56","58.5","54","85","30.12","341","1.6","4","0.00","0.00"
"08:54:57","58.6","54.1","85","30.12","342","1.7","4","0.00","0.00"
"08:59:58","58.7","54.4","85.8","30.13","342","1.6","5","0.00","0.00"
"09:04:59","58.9","54.7","86","30.13","342","0.8","3.5","0.00","0.00"
"09:09:57","59.1","54.9","86","30.13","16","0.5","2.3","0.00","0.00"
"09:14:56","59.2","55","86.3","30.13","50","0.4","2.3","0.00","0.00"
"09:19:57","59.3","55.2","86.4","30.13","37","0.6","3","0.00","0.00"
"09:24:58","59.4","55.2","86","30.13","5","0.8","3.5","0.00","0.00"
"09:29:59","59.5","55.3","86","30.13","11","0.8","3.5","0.00","0.00"
"09:34:55","59.6","55.5","86.4","30.13","26","0.8","3.5","0.00","0.00"
"09:39:57","59.8","55.9","87","30.13","356","0.8","2.3","0.00","0.00"
"09:44:59","59.9","56","87","30.13","350","0.4","3","0.00","0.00"
"09:49:56","60","56.2","87.4","30.13","76","2","5","0.00","0.00"
"09:54:57","59.9","56","87.1","30.13","76","1.5","4","0.00","0.00"
"09:59:58","59.9","56.1","87.4","30.13","68","1.2","3.5","0.00","0.00"
"10:04:55","60","56.4","88","30.13","80","1.6","4","0.00","0.00"
"10:09:57","60","56.4","88","30.13","90","1.9","5","0.00","0.00"
"10:14:59","60","56.5","88.5","30.13","102","2.9","6","0.00","0.00"
"10:19:56","60","56.7","89","30.13","101","2.4","5","0.00","0.00"
"10:24:57","59.8","56.8","89.5","30.13","106","2.5","6","0.00","0.00"
"10:29:58","59.7","56.8","90","30.13","86","2.4","5","0.00","0.00"
"10:34:59","59.7","56.8","90.1","30.13","97","1.7","5","0.00","0.00"
"10:39:58","59.7","57","90.8","30.13","109","2.3","6","0.00","0.00"
"10:44:59","59.7","57.1","91","30.13","87","1.9","5","0.00","0.00"
"10:49:56","59.7","57.1","91","30.13","108","1.5","4","0.00","0.00"
"10:54:57","59.6","57.1","91.1","30.13","121","1.8","4","0.00","0.00"
"10:59:58","59.6","57.3","92","30.14","104","1","3.5","0.00","0.00"
"11:04:59","59.5","57.2","92","30.14","99","1.4","4","0.00","0.00"
"11:09:57","59.5","57.2","92","30.14","105","1.5","4","0.00","0.00"
"11:14:59","59.5","57.2","92","30.14","71","1.6","4","0.00","0.00"
"11:19:57","59.5","57.3","92.3","30.13","73","1.6","3.5","0.00","0.00"
"11:24:58","59.6","57.4","92.5","30.13","96","1.4","6","0.00","0.00"
"11:34:56","59.7","57.4","92","30.13","110","2","5","0.00","0.00"
"11:39:58","59.7","57.3","91.4","30.13","112","1.8","4.6","0.00","0.00"
"11:44:59","59.8","57.3","91.2","30.13","101","2.1","4","0.00","0.00"
"11:49:56","59.8","57.1","90.8","30.12","105","3","5","0.00","0.00"
"11:54:57","59.7","56.9","90.6","30.12","104","2","5","0.00","0.00"
"11:59:58","59.7","56.9","90.5","30.12","109","2.5","5","0.00","0.00"
"12:04:59","59.7","56.9","90.1","30.12","115","1.8","5","0.00","0.00"
"12:09:57","59.9","57.1","90.2","30.12","112","2.3","5","0.00","0.00"
"12:14:59","60.2","57.2","89.9","30.12","99","1.3","3.5","0.00","0.00"
"12:19:56","60.5","57.2","89.1","30.12","99","1.1","3.5","0.00","0.00"
"12:24:57","60.9","57.5","88.9","30.12","150","2.3","4","0.00","0.00"
"12:29:58","61.2","57.4","87.6","30.12","118","2.2","4","0.00","0.00"
"12:34:59","61.4","57.5","87","30.12","123","1.5","5","0.00","0.00"
"12:39:57","61.6","57.6","86.8","30.12","105","1","4.6","0.00","0.00"
"12:44:58","61.8","57.8","86.8","30.12","115","1.5","5","0.00","0.00"
"12:49:56","62.1","58.2","86.9","30.12","148","3","9","0.00","0.00"
"12:54:58","62.2","58","86.1","30.12","133","2.3","9.2","0.00","0.00"
"12:59:58","62.1","57.9","86.2","30.12","117","2","5","0.00","0.00"
"13:04:59","61.9","58","86.9","30.12","108","1.2","5","0.00","0.00"
"13:09:57","62.1","58.3","87.3","30.12","131","1.4","4","0.00","0.00"
"13:14:59","62.1","58","86.2","30.12","106","3.1","7","0.00","0.00"
"13:19:57","62.1","58.1","86.6","30.12","141","2.2","5","0.00","0.00"
"13:24:58","62.3","58.3","86.7","30.12","127","2.2","6","0.00","0.00"
"13:29:59","62.2","58","86.1","30.12","119","2.5","5","0.00","0.00"
"13:34:56","62.1","58.1","86.6","30.12","98","2.8","7","0.00","0.00"
"13:39:58","62.1","58.2","86.9","30.12","114","2.4","4","0.00","0.00"
"13:44:59","62.3","58.2","86.5","30.12","140","2.1","6","0.00","0.00"
"13:49:56","62.5","58.4","86.2","30.11","117","3.5","7","0.00","0.00"
"13:54:57","62.6","58.3","85.7","30.11","132","3.1","7","0.00","0.00"
"13:59:58","62.6","58.4","86","30.11","168","2","5","0.00","0.00"
"14:04:58","62.6","58.1","85.3","30.10","125","3","7","0.00","0.00"
"14:09:56","62.6","58.3","85.7","30.10","113","2.1","5.8","0.00","0.00"
"14:14:58","62.9","58.8","86.5","30.10","128","1.8","6","0.00","0.00"
"14:19:59","63.2","58.9","85.8","30.10","167","2.5","8.1","0.00","0.00"
"14:24:56","63.4","58.7","84.5","30.10","156","2.4","6","0.00","0.00"
"14:29:57","63.5","58.7","84.3","30.10","128","2.5","5.8","0.00","0.00"
"14:34:58","63.7","58.9","84.5","30.10","185","2.1","4.6","0.00","0.00"
"14:39:56","63.8","58.9","84","30.10","189","2.6","7","0.00","0.00"
"14:44:57","63.8","59","84.1","30.10","163","2.6","7","0.00","0.00"
"14:49:58","63.9","58.7","83.3","30.10","155","3.3","11.5","0.00","0.00"
"14:54:59","63.9","58.9","83.7","30.10","123","2.7","7","0.00","0.00"
"14:59:56","64.1","58.8","83.1","30.10","145","2.8","7","0.00","0.00"
"15:04:56","64.2","59.2","83.7","30.09","176","2.7","6.9","0.00","0.00"
"15:09:58","64.3","59.1","83.1","30.09","119","3.6","7","0.00","0.00"
"15:14:56","64.4","59","82.8","30.09","117","2.8","6.9","0.00","0.00"
"15:19:57","64.5","59.2","82.8","30.08","103","2.4","7","0.00","0.00"
"15:24:58","64.9","59.7","83.3","30.08","101","1.8","4","0.00","0.00"
"15:29:59","65.3","59.5","81.7","30.08","152","3.2","10.4","0.00","0.00"
"15:34:56","65.5","59.5","81","30.08","156","2.9","7","0.00","0.00"
"15:39:58","65.8","59.9","81.2","30.08","162","2.7","5.8","0.00","0.00"
"15:44:59","66.1","59.9","80.6","30.08","148","3.4","8.1","0.00","0.00"
"15:49:56","66.3","60.1","80.3","30.06","120","2.9","6.9","0.00","0.00"
"15:54:57","66.4","60","80","30.06","145","2.8","6","0.00","0.00"
"15:59:58","66.6","60.1","79.8","30.06","168","3.6","7","0.00","0.00"
"16:04:58","66.6","60.1","79.5","30.05","131","4.2","11.5","0.00","0.00"
"16:09:44","66.5","59.9","79.3","30.05","115","4.4","10.4","0.00","0.00"
"16:14:58","66.4","59.9","79.7","30.05","131","3.5","10.4","0.00","0.00"
"16:19:58","66.6","60.4","80.6","30.05","177","3.5","9.2","0.00","0.00"
"16:24:56","66.9","60.3","79.4","30.05","165","3.7","10.4","0.00","0.00"
"16:29:56","67.4","60.8","79.3","30.05","139","3.8","7","0.00","0.00"
"16:34:57","67.9","60.9","78.5","30.04","143","4.4","11.5","0.00","0.00"
"16:39:56","68.4","61.4","78.3","30.04","153","4.3","11.5","0.00","0.00"
"16:44:58","69","61.7","77.4","30.04","185","4.5","11.5","0.00","0.00"
"16:49:59","69.1","61.6","77","30.03","136","3.4","9.2","0.00","0.00"
"16:54:56","68.9","61.4","76.8","30.03","163","2.2","4","0.00","0.00"
"16:59:57","69.1","61.6","77.1","30.03","170","3.7","7","0.00","0.00"
"17:04:57","69","61.1","76","30.02","119","3.8","10.4","0.00","0.00"
"17:09:59","68.8","61.2","76.7","30.02","125","2.8","7","0.00","0.00"
"17:14:57","68.9","61.1","76.4","30.02","184","3.2","9","0.00","0.00"
"17:19:58","68.7","60.9","76.5","30.02","138","3","5","0.00","0.00"
"17:24:59","68.4","60.9","77.1","30.02","118","3.2","6","0.00","0.00"
"17:29:56","68.6","61.5","78.2","30.02","169","3.5","10.4","0.00","0.00"
"17:34:56","69.1","62","78","30.02","185","3.3","7","0.00","0.00"
"17:39:58","69.6","62","76.8","30.02","173","3.5","6","0.00","0.00"
"17:44:59","69.9","62.1","76","30.02","136","2.7","9.2","0.00","0.00"
"17:49:56","70.1","62","75.4","30.01","169","3.7","9.2","0.00","0.00"
"17:54:57","70.2","62.4","76.2","30.01","197","4.6","10.4","0.00","0.00"
"17:59:58","70","62","75.7","30.01","184","3.7","9.2","0.00","0.00"
"18:04:59","69.5","61.7","76.1","30.01","186","3.8","9.2","0.00","0.00"
"18:09:57","69.2","61.8","77.3","30.01","190","3","7","0.00","0.00"
"18:14:59","69.3","62","77.5","30.01","160","3","5.8","0.00","0.00"
"18:19:56","69.4","62","77.4","30.00","147","2.3","8","0.00","0.00"
"18:24:57","69.4","61.8","76.7","30.00","170","3.3","7","0.00","0.00"
"18:29:58","69.1","61.6","76.9","30.00","200","5.2","9.2","0.00","0.00"
"18:34:56","68.8","61.3","76.9","30.00","192","3.3","9.2","0.00","0.00"
"18:39:57","68.6","61.4","77.5","30.00","183","2.4","5","0.00","0.00"
"18:44:59","68.4","61.3","77.9","30.00","183","2.7","5","0.00","0.00"
"18:49:56","68.2","61.1","78","29.99","152","2.3","5","0.00","0.00"
"18:54:57","68","61","78.3","29.99","142","2.1","5","0.00","0.00"
"18:59:58","67.9","61","78.5","29.99","134","2.6","6","0.00","0.00"
"19:04:58","67.9","61","78.8","29.98","129","2.1","5","0.00","0.00"
"19:09:56","67.7","61","79","29.98","124","1.7","5","0.00","0.00"
"19:14:59","67.6","60.9","79","29.98","150","2.3","5.8","0.00","0.00"
"19:19:56","67.5","60.8","79","29.98","154","2.2","4","0.00","0.00"
"19:24:57","67.4","60.7","79","29.98","158","1.5","4","0.00","0.00"
"19:29:58","67.2","60.6","79.5","29.98","169","1.9","5","0.00","0.00"
"19:34:59","67","60.6","80","29.98","176","2","4.6","0.00","0.00"
"19:39:57","66.8","60.4","80","29.98","171","1.7","4","0.00","0.00"
"19:44:59","66.7","60.3","80","29.98","163","1.6","4","0.00","0.00"
"19:49:56","66.5","60.3","80.4","29.98","163","1.5","3.5","0.00","0.00"
"19:54:58","66.3","60.3","81","29.98","162","1.1","3.5","0.00","0.00"
"19:59:57","66.2","60.2","81","29.99","152","1.3","3.5","0.00","0.00"
"20:04:58","66","60","81","29.99","150","1.1","4","0.00","0.00"
"20:09:56","65.8","60","81.6","29.99","164","1.1","3.5","0.00","0.00"
"20:14:58","65.6","60","82","29.99","159","1.3","4","0.00","0.00"
"20:19:56","65.4","59.8","82","29.98","138","2.2","5","0.00","0.00"
"20:24:57","65.3","59.7","82","29.98","172","2.4","5","0.00","0.00"
"20:29:58","65.2","59.6","82","29.98","173","1.4","5","0.00","0.00"
"20:34:56","65","59.4","82","29.98","136","1","3.5","0.00","0.00"
"20:39:58","64.7","59.2","82.2","29.98","129","1.1","3.5","0.00","0.00"
"20:44:59","64.5","59.2","83","29.98","134","1.8","4","0.00","0.00"
"20:49:57","64.4","59.1","83","29.97","141","2.2","9","0.00","0.00"
"20:54:58","64.3","59","83","29.97","142","2.7","9.2","0.00","0.00"
"20:59:59","64.1","59","83.6","29.97","170","2.4","5","0.00","0.00"
"21:04:56","63.9","59","84","29.97","176","1.9","5","0.00","0.00"
"21:09:58","63.8","58.9","84","29.97","192","1.7","6","0.00","0.00"
"21:14:56","63.7","59.1","85","29.99","141","2.2","5","0.00","0.00"
"21:19:58","63.6","58.9","84.8","29.99","176","1.4","4","0.00","0.00"
"21:24:59","63.4","58.8","85","29.99","168","1.8","5","0.00","0.00"
"21:29:56","63.3","58.9","85.7","29.99","147","3.1","9.2","0.00","0.00"
"21:34:57","63.2","58.9","86","29.99","160","2","6","0.00","0.00"
"21:39:59","63.1","58.8","86","29.99","167","2.2","4","0.00","0.00"
"21:44:57","63.1","58.9","86.4","29.99","141","2.9","9.2","0.00","0.00"
"21:49:58","62.9","59","87","29.98","159","4","11.5","0.00","0.00"
"21:54:59","62.9","59","87","29.98","128","3.4","7","0.00","0.00"
"21:59:57","62.9","59","87","29.99","177","2.8","6","0.00","0.00"
"22:04:58","62.9","59","87","29.99","156","3.4","10","0.00","0.00"
"22:09:56","62.8","58.9","87","29.99","172","3.5","11.5","0.00","0.00"
"22:14:58","62.8","58.9","87","29.99","150","3.5","7","0.00","0.00"
"22:19:59","62.7","58.8","87","29.98","185","4","8.1","0.00","0.00"
"22:24:56","62.6","58.9","87.7","29.98","137","4.4","10.4","0.00","0.00"
"22:29:58","62.4","58.8","88","29.98","132","4.3","11.5","0.00","0.00"
"22:34:59","62","58.7","88.9","29.98","124","5.4","15","0.00","0.00"
"22:39:57","61.7","58.7","89.9","29.98","136","2.7","9.2","0.00","0.00"
"22:44:59","61.6","58.6","90","29.99","143","3.3","7","0.00","0.00"
"22:49:56","61.5","58.7","90.9","29.99","133","3.6","10","0.00","0.00"
"22:54:58","61.4","58.7","91","29.99","125","3.5","9.2","0.00","0.00"
"22:59:59","61.3","58.7","91","29.99","151","2.9","5","0.00","0.00"
"23:04:56","61.2","58.6","91","29.99","114","3.9","10.4","0.00","0.00"
"23:09:58","61.1","58.5","91","29.99","141","2.4","8.1","0.00","0.00"
"23:14:56","61","58.6","91.8","30.01","143","2.4","5.8","0.00","0.00"
"23:19:58","60.9","58.6","92","30.01","128","1.4","4","0.00","0.00"
"23:24:59","60.8","58.5","92","30.01","70","0.9","3.5","0.00","0.00"
"23:29:57","60.8","58.5","92","30.04","320","0.9","3.5","0.00","0.00"
"23:34:58","60.8","58.5","92.2","30.04","221","0.9","2.3","0.00","0.00"
"23:39:56","60.8","58.8","93","30.04","289","0.6","3.5","0.00","0.00"
"23:44:58","60.7","58.7","93","30.04","309","0","0","0.00","0.00"
"23:49:56","60.7","58.9","93.5","30.04","309","0","0","0.00","0.00"
"23:54:57","60.7","59","94","30.04","309","0.1","2.3","0.00","0.00"
"23:59:58","60.7","59","94","30.05","320","1","5","0.16","0.10"
